Home   Weather   Cumberland   Past weeks

Flag for USA Past Weather in Cumberland, Maryland, USA — Yesterday and Last 2 Weeks

Now
58 °F

Light rain. Fog.


Feels Like: 58 °F
Forecast: 59 / 71 °F
Wind: 5 mph from North

Location: Eastern West Virginia Regional Airport

Current Time: Oct 1, 2016 at 1:00:45 AM

Latest Report: Sep 30, 2016 at 11:53 PM


Visibility: 4 mi

Pressure: 30.13 "Hg

Humidity: 97%

Dew Point: 57 °F

Location of CumberlandLocation

Past Weather in Cumberland — Graph

°F

Cumberland Temperature Yesterday

Maximum temperature yesterday: 60 °F (at 12:53 AM)
Minimum temperature yesterday: 56 °F (at 9:53 AM)
Average temperature yesterday: 58 °F

High & Low Weather Summary for the Past Weeks

 TemperatureHumidityPressure
High90 °F (Sep 23, 3:53 PM)100% (Sep 20, 3:01 AM)30.27 "Hg (Sep 20, 3:01 AM)
Low51 °F (Sep 25, 6:53 AM)25% (Sep 27, 2:53 PM)29.85 "Hg (Sep 27, 4:53 PM)
Average67 °F78%30.08 "Hg
* Reported Sep 15 11:53 PM — Sep 30 11:53 PM, Cumberland, Weather by CustomWeather, © 2016

Note: Actual official high and low records may vary slightly from our data, if they occured in-between our weather recording intervals... More about our weather records

Advertising

Cumberland Weather History for the Previous 24 Hours

Scroll right to see more
 ConditionsComfort  
Time TempWeatherWind HumidityBarometerVisibility
11:53 PM
Fri, Sep 30
58 °FLight rain. Fog.5 mph97%30.13 "Hg4 mi
10:53 PM58 °FLight rain. Fog.6 mph93%30.14 "Hg4 mi
9:53 PM58 °FFog.5 mph93%30.15 "Hg5 mi
8:53 PM57 °FFog.8 mph96%30.13 "Hg5 mi
7:53 PM57 °FFog.10 mph96%30.13 "Hg6 mi
6:53 PM57 °FFog.10 mph96%30.15 "Hg3 mi
6:01 PM57 °FFog.9 mph96%30.14 "Hg2 mi
5:00 PM58 °FLight rain. Fog.7 mph97%30.15 "Hg3 mi
3:53 PM58 °FLight rain. Fog.9 mph97%30.14 "Hg1 mi
2:53 PM59 °FOvercast.12 mph90%30.15 "Hg8 mi
1:53 PM59 °FOvercast.8 mph90%30.17 "Hg10 mi
12:53 PM58 °FOvercast.7 mph90%30.18 "Hg10 mi
11:53 AM57 °FFog.13 mph96%30.18 "Hg4 mi
10:53 AM56 °FLow clouds.10 mph93%30.20 "Hg10 mi
9:53 AM56 °FLight rain. Mostly cloudy.9 mph93%30.19 "Hg7 mi
8:53 AM57 °FMore clouds than sun.10 mph93%30.19 "Hg10 mi
7:53 AM57 °FLow clouds.8 mph93%30.19 "Hg10 mi
6:53 AM57 °FLight rain. Fog.12 mph96%30.17 "Hg3 mi
6:00 AM57 °FMostly cloudy.9 mph96%30.18 "Hg9 mi
4:53 AM58 °FLight rain. Fog.9 mph97%30.17 "Hg2 mi
3:53 AM59 °FLight rain. Fog.9 mph93%30.15 "Hg5 mi
2:53 AM59 °FRain. Fog.9 mph96%30.16 "Hg3 mi
2:03 AM59 °FHeavy rain. Fog.9 mph96%30.17 "Hg2 mi
1:01 AM60 °FLight rain. Fog.7 mph93%30.17 "Hg3 mi
Weather by CustomWeather, © 2016

See weather overviewHow to use our weather pages